Time,TemperatureF,DewpointF,PressureIn,WindDirection,WindDirectionDegrees,WindSpeedMPH,WindSpeedGustMPH,Humidity,HourlyPrecipIn,Conditions,Clouds,dailyrainin,SoftwareType,DateUTC
2014-10-30 00:23:00,45.0,34.0,-100.00,West,270,6.0,12.0,67,0.00,,,-99.99,,2014-10-30 04:23:00,
2014-10-30 00:52:00,44.0,35.0,-100.00,West,270,4.0,6.0,68,0.00,,,-99.99,,2014-10-30 04:52:00,
2014-10-30 01:23:00,44.0,35.0,-100.00,West,260,4.0,9.0,70,0.00,,,-99.99,,2014-10-30 05:23:00,
2014-10-30 01:52:00,44.0,35.0,-100.00,West,265,4.0,7.0,70,0.00,,,-99.99,,2014-10-30 05:52:00,
2014-10-30 02:22:00,43.0,35.0,-100.00,WSW,250,4.0,7.0,72,0.00,,,-99.99,,2014-10-30 06:22:00,
2014-10-30 02:53:00,43.0,35.0,-100.00,West,260,3.0,5.0,73,0.00,,,-99.99,,2014-10-30 06:53:00,
2014-10-30 03:22:00,42.0,35.0,-100.00,NNW,345,2.0,4.0,75,0.00,,,-99.99,,2014-10-30 07:22:00,
2014-10-30 03:52:00,43.0,35.0,-100.00,West,260,3.0,6.0,75,0.00,,,-99.99,,2014-10-30 07:52:00,
2014-10-30 04:22:00,43.0,36.0,-100.00,WSW,245,3.0,6.0,75,0.00,,,-99.99,,2014-10-30 08:22:00,
2014-10-30 04:52:00,43.0,36.0,-100.00,West,260,2.0,5.0,76,0.00,,,-99.99,,2014-10-30 08:52:00,
2014-10-30 05:22:00,42.0,35.0,-100.00,NW,325,1.0,4.0,76,0.00,,,-99.99,,2014-10-30 09:22:00,
2014-10-30 05:54:00,41.0,35.0,-100.00,SW,230,3.0,6.0,78,0.00,,,-99.99,,2014-10-30 09:54:00,
2014-10-30 06:23:00,41.0,35.0,-100.00,West,265,3.0,6.0,78,0.00,,,-99.99,,2014-10-30 10:23:00,
2014-10-30 06:53:00,41.0,35.0,-100.00,West,270,2.0,5.0,79,0.00,,,-99.99,,2014-10-30 10:53:00,
2014-10-30 07:22:00,41.0,35.0,-100.00,NW,305,1.0,4.0,78,0.00,,,-99.99,,2014-10-30 11:22:00,
2014-10-30 07:52:00,42.0,35.0,-100.00,SW,230,2.0,8.0,76,0.00,,,-99.99,,2014-10-30 11:52:00,
2014-10-30 08:22:00,41.0,35.0,-100.00,WNW,285,1.0,4.0,78,0.00,,,-99.99,,2014-10-30 12:22:00,
2014-10-30 08:52:00,42.0,35.0,-100.00,West,280,2.0,6.0,77,0.00,,,-99.99,,2014-10-30 12:52:00,
2014-10-30 09:22:00,42.0,36.0,-100.00,West,270,3.0,5.0,78,0.00,,,-99.99,,2014-10-30 13:22:00,
2014-10-30 09:52:00,44.0,36.0,-100.00,NW,325,2.0,6.0,75,0.00,,,-99.99,,2014-10-30 13:52:00,
2014-10-30 10:22:00,45.0,36.0,-100.00,NW,310,5.0,7.0,70,0.00,,,-99.99,,2014-10-30 14:22:00,